Location: ??????
(55.7522°N, 37.6156°E)
Time: 17:53:41
(UTC+00:00)

Cosmos 2026 Rocket - Pass Details

Date: 14 June 2025
Orbit: 937 x 1001 km, 82.9° (Epoch: 12 July)

Event Time Altitude Azimuth Distance (km) Brightness Sun altitude
Exits shadow 23:21:57 - 182° (S) 3,111 6.1 -7.4°
Reaches altitude 10° 23:22:57 10° 181° (S) 2,743 5.8 -7.4°
Maximum altitude 23:29:13 75° 98° (E) 1,014 4.2 -7.0°
Drops below altitude 10° 23:35:26 10° 14° (NNE) 2,717 7.9 -6.6°
Sets 23:37:55 0° 13° (NNE) 3,659 8.8 -6.4°
